TimeEDT,TemperatureF,Dew PointF,Humidity,Sea Level PressureIn,VisibilityMPH,Wind Direction,Wind SpeedMPH,Gust SpeedMPH,PrecipitationIn,Events,Conditions,WindDirDegrees,DateUTC
12:53 AM,57.0,44.1,62,30.23,10.0,North,4.6,-,N/A,,Clear,360,2013-03-28 04:53:00
1:53 AM,55.9,45.0,67,30.22,10.0,North,5.8,-,N/A,,Clear,350,2013-03-28 05:53:00
2:53 AM,55.0,45.0,69,30.22,10.0,North,6.9,-,N/A,,Clear,350,2013-03-28 06:53:00
3:53 AM,54.0,44.1,69,30.20,10.0,North,5.8,-,N/A,,Clear,360,2013-03-28 07:53:00
4:53 AM,54.0,43.0,66,30.20,10.0,NNW,5.8,-,N/A,,Clear,340,2013-03-28 08:53:00
5:53 AM,53.1,44.1,71,30.21,10.0,NNW,8.1,-,N/A,,Clear,340,2013-03-28 09:53:00
6:53 AM,52.0,44.1,74,30.22,10.0,North,8.1,-,N/A,,Clear,350,2013-03-28 10:53:00
7:53 AM,53.1,44.1,71,30.23,10.0,North,6.9,-,N/A,,Clear,350,2013-03-28 11:53:00
8:53 AM,57.9,43.0,58,30.24,10.0,North,9.2,-,N/A,,Clear,350,2013-03-28 12:53:00
9:53 AM,63.0,42.1,46,30.27,10.0,North,11.5,-,N/A,,Clear,350,2013-03-28 13:53:00
10:53 AM,66.9,45.0,45,30.28,10.0,North,10.4,-,N/A,,Clear,360,2013-03-28 14:53:00
11:53 AM,70.0,45.0,41,30.28,10.0,NW,10.4,-,N/A,,Clear,310,2013-03-28 15:53:00
12:53 PM,72.0,41.0,33,30.26,10.0,North,5.8,-,N/A,,Clear,350,2013-03-28 16:53:00
1:53 PM,73.0,37.0,27,30.23,10.0,NW,6.9,-,N/A,,Clear,310,2013-03-28 17:53:00
2:53 PM,75.0,34.0,22,30.21,10.0,North,10.4,18.4,N/A,,Clear,350,2013-03-28 18:53:00
3:53 PM,75.0,32.0,21,30.19,10.0,Variable,5.8,-,N/A,,Clear,0,2013-03-28 19:53:00
4:53 PM,73.0,44.1,35,30.18,10.0,East,13.8,-,N/A,,Clear,100,2013-03-28 20:53:00
5:53 PM,71.1,43.0,36,30.18,10.0,ENE,10.4,-,N/A,,Clear,60,2013-03-28 21:53:00
6:53 PM,69.1,43.0,39,30.20,10.0,ENE,12.7,-,N/A,,Clear,60,2013-03-28 22:53:00
7:53 PM,66.9,45.0,45,30.22,10.0,ENE,8.1,-,N/A,,Clear,60,2013-03-28 23:53:00
8:53 PM,66.0,44.1,45,30.23,10.0,NE,6.9,-,N/A,,Clear,40,2013-03-29 00:53:00
9:53 PM,64.0,42.1,45,30.25,10.0,NNE,4.6,-,N/A,,Clear,20,2013-03-29 01:53:00
10:53 PM,63.0,41.0,45,30.26,10.0,North,8.1,-,N/A,,Clear,10,2013-03-29 02:53:00
11:53 PM,61.0,37.9,42,30.27,10.0,North,5.8,-,N/A,,Clear,10,2013-03-29 03:53:00